Regional Weather Roundup
Issued by NWS

Home | Current Version | Previous Version | Text Only | Print | Product List | Glossary Off
Versions: 1 2 3 4 5 6 7 8 9 10 11 12 13 14 15 16 17 18 19 20 21 22 23 24 25 26 27 28 29 30 31 32 33 34 35 36 37 38 39 40 41 42 43 44 45 46 47 48 49 50

000
ASUS43 KBIS 020820
RWRND

NORTH DAKOTA REGIONAL WEATHER ROUNDUP
NATIONAL WEATHER SERVICE BISMARCK ND
300 AM CDT THU APR 02 2015

NOTE: "FAIR" INDICATES FEW OR NO CLOUDS BELOW 12,000 FEET WITH NO
SIGNIFICANT WEATHER AND/OR OBSTRUCTIONS TO VISIBILITY.


NDZ001>003-009>011-017-020900-
NORTHWEST NORTH DAKOTA

CITY           SKY/WX    TMP DP  RH WIND       PRES   REMARKS
WILLISTON      CLEAR     38  23  55 W17G28    29.64S
MINOT          CLEAR     38  23  55 SW15      29.57S
MINOT AFB      PTCLDY    38  27  64 W17       29.55F
$$

NDZ018>021-031>035-040>046-020900-
SOUTHWEST NORTH DAKOTA

CITY           SKY/WX    TMP DP  RH WIND       PRES   REMARKS
BISMARCK       CLEAR     36  22  56 W6        29.70S
DICKINSON      CLEAR     35  17  47 W16       29.71R
GARRISON         N/A     35  25  66 W14       29.63S
HETTINGER ARPT CLEAR     28  17  63 W7        29.77S
$$

NDZ004>008-012>016-024-026-027-054-020900-
NORTHEAST NORTH DAKOTA

CITY           SKY/WX    TMP DP  RH WIND       PRES   REMARKS
GRAND FORKS    CLEAR     37  28  70 SW8       29.61R
GRND FRKS AFB  CLEAR     37  27  69 W9        29.61R
DEVILS LAKE    CLEAR     34  27  75 SW9       29.59R
$$

NDZ022-023-025-028>030-036>039-047>053-020900-
SOUTHEAST NORTH DAKOTA

CITY           SKY/WX    TMP DP  RH WIND       PRES   REMARKS
FARGO          MOCLDY    40  29  64 SW12      29.67F
JAMESTOWN      PTCLDY    38  25  59 W9        29.67S
$$



USA.gov is the U.S. government's official web portal to all federal, state and local government web resources and services.